, AK

(GMT )
Gustavus

Weather History for PAGS - January, 2015

Change the Weather History Date:

Sunday, January 4, 2015

  Actual Average Record
Temperature  
Mean Temperature 26 °F -  
Max Temperature 32 °F 29 °F 46 °F (2003)
Min Temperature 19 °F 16 °F -1 °F (1991)
Degree Days  
Heating Degree Days 38    
Moisture  
Dew Point -1 °F    
Average Humidity 29    
Maximum Humidity 54    
Minimum Humidity 21    
Precipitation  
Precipitation 0.00 in - - ()
Sea Level Pressure  
Sea Level Pressure 30.12 in    
Wind  
Wind Speed 10 mph (North)    
Max Wind Speed 15 mph    
Max Gust Speed 23 mph    
Visibility 10 miles    
Events      
Averages and records for this station are not official NWS values.
T = Trace of Precipitation, MM = Missing Value Source: NWS Daily Summary

Daily Weather History Graph

Daily Weather History Graph

Search for Another Location

Airport or City:

Trip Planner

Search our weather history database for the weather conditions in past years. The results will help you decide how hot, cold, wet, or windy it might be!

Date:

Astronomy

Jan. 04, 2015 Rise Set
Actual Time 8:50 AM AKST 3:25 PM AKST
Civil Twilight 7:58 AM AKST 4:17 PM AKST
Nautical Twilight 7:05 AM AKST 5:10 PM AKST
Astronomical Twilight 6:17 AM AKST 5:58 PM AKST
Moon 3:52 PM AKST (1/4) 7:50 AM AKST (1/4)
Length of Visible Light 8h 19m
Length of Day
6h 35m
Full, 100% of the Moon is Illuminated
Jan 4
Full
Jan 4
Full
Jan 13
Last Quarter
Jan 20
New
Jan 26
First Quarter

Hourly Weather History & Observations

Time (AKST) Temp. Windchill Dew Point Humidity Pressure Visibility Wind Dir Wind Speed Gust Speed Precip Events Conditions
12:16 AM 24.8 °F 15.3 °F -2.2 °F 31% 30.33 in 10.0 mi North 9.2 mph - N/A   Clear
12:36 AM 26.6 °F 21.2 °F -2.2 °F 29% 30.33 in 10.0 mi NE 4.6 mph - N/A   Clear
12:56 AM 26.6 °F 17.5 °F -2.2 °F 29% 30.32 in 10.0 mi North 9.2 mph - N/A   Clear
1:16 AM 26.6 °F 16.8 °F -2.2 °F 29% 30.31 in 10.0 mi North 10.4 mph 18.4 mph N/A   Clear
1:36 AM 26.6 °F 17.5 °F -2.2 °F 29% 30.30 in 10.0 mi North 9.2 mph 17.3 mph N/A   Clear
1:56 AM 26.6 °F 16.2 °F -2.2 °F 29% 30.30 in 10.0 mi North 11.5 mph - N/A   Clear
2:16 AM 26.6 °F 15.2 °F -2.2 °F 29% 30.29 in 10.0 mi North 13.8 mph - N/A   Clear
2:36 AM 26.6 °F 15.7 °F -2.2 °F 29% 30.28 in 10.0 mi North 12.7 mph 17.3 mph N/A   Clear
2:56 AM 26.6 °F 15.2 °F -2.2 °F 29% 30.27 in 10.0 mi North 13.8 mph 19.6 mph N/A   Clear
3:16 AM 26.6 °F 16.2 °F -2.2 °F 29% 30.27 in 10.0 mi North 11.5 mph 18.4 mph N/A   Clear
3:36 AM 26.6 °F 17.5 °F -2.2 °F 29% 30.26 in 10.0 mi North 9.2 mph - N/A   Clear
3:56 AM 24.8 °F 14.0 °F -2.2 °F 31% 30.25 in 10.0 mi North 11.5 mph - N/A   Clear
4:16 AM 24.8 °F 12.9 °F -2.2 °F 31% 30.24 in 10.0 mi North 13.8 mph - N/A   Clear
4:36 AM 24.8 °F 14.6 °F -2.2 °F 31% 30.24 in 10.0 mi North 10.4 mph - N/A   Clear
4:56 AM 24.8 °F 13.4 °F -2.2 °F 31% 30.23 in 10.0 mi North 12.7 mph 18.4 mph N/A   Clear
5:16 AM 24.8 °F 14.6 °F -2.2 °F 31% 30.22 in 10.0 mi North 10.4 mph - N/A   Clear
5:36 AM 24.8 °F 14.6 °F -2.2 °F 31% 30.21 in 10.0 mi North 10.4 mph - N/A   Clear
5:56 AM 24.8 °F 13.4 °F -2.2 °F 31% 30.20 in 10.0 mi North 12.7 mph 17.3 mph N/A   Clear
6:16 AM 26.6 °F 16.8 °F -2.2 °F 29% 30.20 in 10.0 mi North 10.4 mph 16.1 mph N/A   Clear
6:36 AM 24.8 °F 14.0 °F -2.2 °F 31% 30.19 in 10.0 mi North 11.5 mph - N/A   Clear
6:56 AM 24.8 °F 13.4 °F -2.2 °F 31% 30.18 in 10.0 mi North 12.7 mph - N/A   Clear
7:16 AM 24.8 °F 14.6 °F -2.2 °F 31% 30.17 in 10.0 mi North 10.4 mph - N/A   Clear
7:36 AM 26.6 °F 15.7 °F -2.2 °F 29% 30.16 in 10.0 mi North 12.7 mph 21.9 mph N/A   Clear
7:56 AM 26.6 °F 15.7 °F -2.2 °F 29% 30.14 in 10.0 mi NNW 12.7 mph - N/A   Clear
8:16 AM 26.6 °F 15.2 °F -2.2 °F 29% 30.14 in 10.0 mi North 13.8 mph 18.4 mph N/A   Clear
8:36 AM 26.6 °F 16.2 °F -2.2 °F 29% 30.13 in 10.0 mi North 11.5 mph - N/A   Clear
8:56 AM 26.6 °F 16.2 °F -2.2 °F 29% 30.13 in 10.0 mi North 11.5 mph - N/A   Clear
9:16 AM 26.6 °F 18.2 °F -2.2 °F 29% 30.13 in 10.0 mi North 8.1 mph 17.3 mph N/A   Clear
9:36 AM 26.6 °F 16.2 °F -2.2 °F 29% 30.12 in 10.0 mi North 11.5 mph - N/A   Clear
9:56 AM 26.6 °F 15.7 °F -0.4 °F 31% 30.11 in 10.0 mi North 12.7 mph 18.4 mph N/A   Clear
10:16 AM 28.4 °F 17.5 °F -0.4 °F 29% 30.10 in 10.0 mi North 13.8 mph - N/A   Clear
10:36 AM 28.4 °F 17.0 °F -0.4 °F 29% 30.10 in 10.0 mi NNW 15.0 mph 18.4 mph N/A   Clear
10:56 AM 28.4 °F 17.5 °F -0.4 °F 29% 30.10 in 10.0 mi North 13.8 mph 19.6 mph N/A   Clear
11:16 AM 30.2 °F 21.3 °F -0.4 °F 27% 30.09 in 10.0 mi North 10.4 mph 16.1 mph N/A   Clear
11:36 AM 30.2 °F 19.8 °F -0.4 °F 27% 30.08 in 10.0 mi North 13.8 mph 21.9 mph N/A   Clear
11:56 AM 30.2 °F 19.8 °F -0.4 °F 27% 30.07 in 10.0 mi North 13.8 mph 21.9 mph N/A   Clear
12:16 PM 30.2 °F 19.3 °F -2.2 °F 25% 30.06 in 10.0 mi North 15.0 mph 23.0 mph N/A   Clear
12:36 PM 30.2 °F 19.8 °F -2.2 °F 25% 30.05 in 10.0 mi North 13.8 mph 20.7 mph N/A   Clear
12:56 PM 30.2 °F 20.2 °F -2.2 °F 25% 30.05 in 10.0 mi North 12.7 mph - N/A   Clear
1:16 PM 30.2 °F 21.3 °F -0.4 °F 27% 30.05 in 10.0 mi North 10.4 mph 17.3 mph N/A   Clear
1:36 PM 30.2 °F 20.8 °F -2.2 °F 25% 30.04 in 10.0 mi North 11.5 mph 19.6 mph N/A   Clear
1:56 PM 30.2 °F 20.2 °F -2.2 °F 25% 30.04 in 10.0 mi North 12.7 mph 18.4 mph N/A   Clear
2:16 PM 30.2 °F 20.8 °F -2.2 °F 25% 30.03 in 10.0 mi North 11.5 mph 19.6 mph N/A   Clear
2:36 PM 30.2 °F 21.3 °F -2.2 °F 25% 30.03 in 10.0 mi North 10.4 mph 21.9 mph N/A   Clear
2:56 PM 30.2 °F 20.2 °F -2.2 °F 25% 30.03 in 10.0 mi North 12.7 mph 17.3 mph N/A   Clear
3:16 PM 30.2 °F 20.8 °F -2.2 °F 25% 30.03 in 10.0 mi North 11.5 mph 17.3 mph N/A   Clear
3:36 PM 30.2 °F 20.8 °F -2.2 °F 25% 30.02 in 10.0 mi North 11.5 mph 17.3 mph N/A   Clear
3:56 PM 30.2 °F 20.8 °F -2.2 °F 25% 30.02 in 10.0 mi North 11.5 mph 18.4 mph N/A   Clear
4:16 PM 30.2 °F 21.9 °F -2.2 °F 25% 30.02 in 10.0 mi North 9.2 mph 16.1 mph N/A   Clear
4:36 PM 30.2 °F 21.9 °F -2.2 °F 25% 30.02 in 10.0 mi NNW 9.2 mph - N/A   Clear
4:56 PM 30.2 °F 19.8 °F -2.2 °F 25% 30.02 in 10.0 mi North 13.8 mph 18.4 mph N/A   Clear
5:16 PM 30.2 °F 20.2 °F -2.2 °F 25% 30.02 in 10.0 mi North 12.7 mph - N/A   Clear
5:36 PM 32.0 °F 22.5 °F -2.2 °F 23% 30.02 in 10.0 mi North 12.7 mph - N/A   Clear
5:56 PM 30.2 °F 20.8 °F -2.2 °F 25% 30.03 in 10.0 mi NE 11.5 mph 17.3 mph N/A   Clear
6:16 PM 32.0 °F 23.6 °F -2.2 °F 23% 30.03 in 10.0 mi NNE 10.4 mph 19.6 mph N/A   Clear
6:36 PM 32.0 °F 23.0 °F -2.2 °F 23% 30.03 in 10.0 mi North 11.5 mph - N/A   Clear
6:56 PM 32.0 °F 23.6 °F -4.0 °F 21% 30.04 in 10.0 mi North 10.4 mph 20.7 mph N/A   Clear
7:16 PM 32.0 °F 24.8 °F -2.2 °F 23% 30.04 in 10.0 mi North 8.1 mph - N/A   Clear
7:36 PM 30.2 °F 24.3 °F -4.0 °F 23% 30.05 in 10.0 mi NNE 5.8 mph - N/A   Clear
7:56 PM 28.4 °F - -5.8 °F 23% 30.06 in 10.0 mi Calm Calm - N/A   Clear
8:16 PM 24.8 °F - -2.2 °F 31% 30.07 in 10.0 mi Calm Calm - N/A   Clear
8:36 PM 24.8 °F - -0.4 °F 34% 30.07 in 10.0 mi Calm Calm - N/A   Clear
8:56 PM 21.2 °F - -0.4 °F 39% 30.07 in 10.0 mi Calm Calm - N/A   Clear
9:16 PM 24.8 °F - 5.0 °F 43% 30.07 in 10.0 mi Calm Calm - N/A   Clear
9:36 PM 21.2 °F - 6.8 °F 54% 30.07 in 10.0 mi Calm Calm - N/A   Clear
9:56 PM 28.4 °F 19.7 °F 6.8 °F 40% 30.07 in 10.0 mi NE 9.2 mph - N/A   Clear
10:16 PM 28.4 °F 19.7 °F 1.4 °F 31% 30.07 in 10.0 mi NE 9.2 mph - N/A   Clear
10:36 PM 26.6 °F 18.2 °F -0.4 °F 31% 30.07 in 10.0 mi North 8.1 mph - N/A   Clear
10:56 PM 26.6 °F 22.6 °F -0.4 °F 31% 30.07 in 10.0 mi North 3.5 mph - N/A   Clear
11:16 PM 24.8 °F 19.1 °F -0.4 °F 34% 30.07 in 10.0 mi NNE 4.6 mph - N/A   Clear
11:36 PM 21.2 °F - 1.4 °F 42% 30.08 in 10.0 mi Calm Calm - N/A   Clear
11:56 PM 19.4 °F - 1.4 °F 46% 30.08 in 10.0 mi Calm Calm - N/A   Clear